ONEWEB-0238, 48784

Orbit data source: Space-Track

ONEWEB-0238, 48784 is a payload satellite owned by One Web (NAA) (UK) in LEO that was launched on Fri, 28 May 2021 UTC via a SOYUZ-2-1B launch vehicle from the Vostochny Cosmodrome (VOSTO). Payload-class satellites include a variety of spacecraft equipped with specific instruments for various scientific and technological missions. These include communications satellites like Starlink; space stations such as the ISS; scientific satellites like the Hubble; Earth observation satellites from companies like Planet Labs, Umbra, and HawkEye 360; GPS; miniature CubeSats for education and research; and military/defense satellites.

Loading next visibility...
Identifier
48784, 2021-045T
Orbit
LEO
Country
Flag of UKUK
Related business
Manufacturer
One Web
Mission
Operational Commercial Communications
Bus & Motor
ARROW, Unknown motor
Mass
148 kg wet, ~140 kg dry
Launch date (UTC)
2021-05-28 (5 years ago)
Launch vehicle
SOYUZ-2-1B
Launch site
Vostochny Cosmodrome (VOSTO)
Object type
Payload
Rocket body
Debris
Shape & HBR
Trap Box + 2 Pan, 6.7 m
Radar Cross Section
3.464 m², Large (>1 m²)

Expand to show TLE details & history
Last TLE update: 2 days ago

TLE from 2 days ago
0 ONEWEB-0238
1 48784U 21045T   26171.28005815 -.00000041  00000-0 -14260-3 0  9992
2 48784  87.9015 258.5573 0002392 105.0662 255.0733 13.15547466244786
Epoch: 2026-06-20T06:43Z
TLE epoch observation values (Epoch: 2026-06-20T06:43:17.024Z)
Latitude
-0.00002°
Longitude
-110.76058°
Altitude
1,205.138 km
Speed
7.251 km/s
True Right ascension
17h 14m 13s
True Declination
0° 00' 00"
Sunlit
Object was in full shadow at epoch
Visualization orbit readout
Latitude
Unknown
Longitude
Unknown
Altitude
Unknown
Speed
Unknown
Apparent Right ascension
Unknown
Apparent Declination
Unknown
Sunlit
N/A
Visualization observer readout
Local Sidereal Time
21:23:59
Azimuth
Unknown
Elevation
Unknown
Doppler factor
Unknown
Orbital elements
Apogee altitude
1,200.699 km
Perigee altitude
1,197.075 km
Semi-major axis
7,577.024 km
Eccentricity
0.00024
Inclination
87.9015°
RAAN
258.5573°
Arg. of periapsis
105.0662°
True anomaly
255.04682°
Mean anomaly
255.0733°
Eccentric anomaly
255.06006°
Mean motion
3.29075 °/min
Orbital period
109.4 mins
BSTAR
-0.0001426
Loading maneuver chart data...
Computing Atmospheric mass density...
Loading historical data...
Loading historical data...
Loading historical data...
Loading historical data...
Loading historical data...
Loading historical data...
Loading historical data...

Documentation

Showing up to 5 results
|